Probability
6 6 16 39 71 55 16 0 0 0 0 0 10 10 13 26 19 26 26 32 45 48 65 71 84 84 74 74 74 77 77 77 71 74 74 71 71 58 55 65 61 61 58 61 61 55 55 58 61
6 16 39 55 58 10 3 6 3 3 0 0 13 13 13 13 23 16 19 35 45 48 52 65 81 81 74 71 77 81 81 77 74 71 71 65 65 55 52 58 55 55 55 58 61 61 52 58 65
13 35 48 65 35 6 0 0 0 0 0 6 13 13 13 10 13 16 19 26 32 39 55 65 81 81 74 74 77 77 77 71 68 65 68 61 61 58 52 48 55 55 55 58 55 61 55 55 61
35 65 61 48 6 0 0 3 3 0 0 3 10 13 19 6 6 13 13 23 29 42 55 68 84 81 77 81 84 81 65 61 68 65 68 65 61 58 55 55 58 61 58 55 55 58 52 58 55
55 58 52 16 0 0 3 3 3 3 3 6 13 16 19 13 10 13 13 23 32 45 48 65 81 84 81 74 74 71 68 61 58 61 58 65 58 58 61 55 58 58 55 55 58 55 55 52 58
52 48 26 3 0 0 3 0 3 3 6 13 16 19 19 19 16 16 19 26 32 45 55 65 84 77 74 81 77 84 71 71 55 55 58 55 55 55 55 61 58 58 52 48 55 58 52 45 48
48 35 13 0 0 3 3 3 3 3 6 10 10 19 19 19 16 19 23 29 32 39 48 55 61 71 74 74 74 77 81 71 68 61 55 52 48 55 58 55 55 58 55 52 68 58 58 48 52
29 19 6 0 0 3 3 3 6 6 6 10 6 19 16 23 23 23 23 26 26 35 42 48 52 68 65 61 71 74 68 65 68 61 55 58 55 52 52 55 61 61 61 65 58 55 45 52 58
16 19 3 0 0 0 3 3 3 6 6 6 13 19 19 16 16 16 16 16 19 19 29 32 35 58 55 52 52 68 65 71 74 71 68 71 61 55 58 48 55 52 52 55 48 42 39 55 42
13 13 0 0 0 0 3 3 3 3 6 16 19 23 23 19 10 6 10 13 16 23 23 32 42 39 48 35 52 68 55 65 71 71 74 74 71 65 55 65 68 58 58 55 52 45 42 35 32
0 0 0 0 0 0 0 0 0 3 10 16 23 19 23 10 13 13 10 10 6 16 23 26 35 48 39 48 45 58 61 65 61 71 74 77 74 74 65 68 61 68 58 55 52 48 35 39 32
0 0 0 0 0 0 0 3 3 3 10 13 16 19 16 16 16 10 13 13 16 26 29 32 39 58 58 45 48 48 52 58 58 68 71 77 74 74 71 74 71 65 61 71 65 58 52 48 39
0 0 0 0 3 3 3 3 0 0 6 16 19 16 13 16 13 13 16 19 29 32 29 35 58 74 77 81 68 42 45 48 48 74 71 65 65 74 71 71 71 74 71 65 71 61 58 55 48
0 0 0 0 3 3 3 3 0 0 6 10 6 13 13 23 19 19 26 26 35 42 42 48 58 77 81 68 71 58 52 58 55 65 58 61 65 65 71 71 74 77 77 61 61 58 65 61 55
0 0 0 3 0 3 3 3 6 3 3 0 6 16 13 19 29 32 29 29 39 48 52 61 61 61 81 71 65 55 55 52 52 71 65 65 68 68 71 74 71 77 74 68 68 61 58 52 42
0 3 0 0 0 0 3 13 13 6 0 0 3 13 23 26 29 35 35 39 45 55 61 61 42 58 77 77 74 55 52 58 68 68 68 61 61 65 68 71 71 74 74 68 71 65 58 55 45
0 3 0 0 0 0 3 16 13 13 16 13 13 16 19 26 29 35 35 39 58 68 68 68 61 68 68 71 68 65 65 65 71 74 71 65 65 58 61 65 71 71 65 58 58 61 61 58 52
0 0 0 0 0 0 3 13 13 16 10 16 19 23 29 29 29 35 42 39 58 68 71 74 71 77 71 71 74 71 68 68 71 68 65 65 65 55 52 58 55 48 61 61 61 61 55 65 61
0 0 0 0 0 0 0 10 10 10 10 16 19 26 35 35 29 39 39 39 55 68 68 77 74 81 81 77 77 71 68 71 68 65 68 65 61 55 52 52 55 52 52 48 48 55 55 58 55
0 0 0 0 0 0 3 6 3 16 16 16 26 29 35 35 35 39 39 42 52 65 74 77 84 81 81 84 77 71 71 65 68 68 68 65 68 65 42 58 55 52 52 48 45 45 52 48 48
0 0 0 0 0 0 6 3 3 16 16 16 23 32 32 29 35 42 45 45 45 61 68 61 81 81 77 77 74 71 71 65 61 65 65 65 61 55 61 58 58 55 52 48 48 48 45 42 45
0 0 0 0 3 6 3 3 13 13 23 23 19 26 39 42 32 39 52 52 48 58 65 74 81 84 77 81 77 71 68 65 65 65 65 65 61 58 58 61 61 52 52 52 48 52 48 48 48
0 0 0 0 0 3 3 6 10 19 16 23 23 32 35 32 39 39 39 55 48 58 61 74 81 84 77 81 77 74 71 65 61 58 61 65 61 61 61 55 55 55 58 48 52 52 52 48 48
0 0 0 0 0 0 0 6 6 13 13 19 26 32 32 32 35 35 45 58 52 61 65 71 84 84 77 77 77 74 68 65 65 61 61 61 61 58 52 52 55 55 55 52 52 48 48 48 45
0 0 0 0 3 0 0 6 10 13 6 13 13 26 26 29 32 35 45 55 55 68 71 68 74 77 77 77 77 74 77 74 71 65 61 61 52 48 48 42 55 52 52 45 45 45 42 39 35
0 0 0 0 0 0 3 10 16 13 3 10 16 19 29 29 32 35 39 55 71 68 68 68 74 77 81 77 81 77 77 74 68 65 58 55 39 39 39 42 45 48 48 35 42 48 45 45 35
0 0 0 0 0 0 6 10 6 13 10 13 16 23 23 26 32 39 42 55 65 65 65 68 74 74 71 74 77 77 74 74 68 61 52 45 48 39 39 42 42 48 48 45 42 42 42 39 42
0 0 0 0 3 3 3 10 10 10 6 13 16 23 32 26 32 42 48 52 55 65 68 68 71 74 71 71 68 65 71 68 61 58 52 45 42 45 42 42 42 45 45 48 48 45 42 42 42
0 0 0 0 0 3 3 6 10 13 13 10 19 32 29 26 32 42 55 52 55 52 55 68 71 74 68 68 65 68 65 55 58 55 48 45 48 42 42 42 45 45 45 48 45 45 42 42 39
0 0 0 0 0 0 3 6 6 6 10 16 23 29 32 32 32 42 52 48 48 52 52 48 55 61 61 65 71 68 65 61 58 52 52 52 48 45 45 48 52 48 45 45 45 45 45 42 42
Height
5898 5897 5897 5897 5897 5898 5897 5897 5896 5895 5894 5893 5892 5891 5890 5890 5890 5891 5888 5886 5886 5886 5885 5885 5885 5885 5885 5885 5884 5884 5884 5883 5883 5883 5884 5884 5884 5884 5885 5885 5886 5886 5887 5887 5887 5888 5889 5890 5890
5901 5900 5900 5899 5899 5900 5900 5898 5898 5897 5896 5895 5894 5893 5892 5891 5891 5890 5889 5888 5888 5887 5887 5887 5887 5887 5887 5887 5886 5885 5885 5885 5885 5885 5885 5885 5885 5886 5886 5886 5886 5887 5887 5887 5888 5888 5888 5890 5890
5903 5902 5901 5900 5902 5902 5902 5901 5900 5899 5898 5897 5896 5895 5895 5894 5893 5892 5891 5890 5889 5889 5888 5888 5888 5888 5888 5888 5888 5887 5887 5886 5886 5886 5886 5885 5885 5886 5886 5887 5887 5887 5887 5887 5888 5888 5889 5889 5890
5905 5904 5904 5904 5904 5904 5904 5903 5902 5901 5900 5899 5898 5897 5896 5895 5894 5893 5893 5892 5891 5891 5890 5890 5890 5890 5889 5889 5889 5889 5888 5888 5887 5887 5887 5886 5886 5887 5887 5887 5887 5887 5887 5887 5888 5888 5889 5889 5890
5906 5906 5907 5907 5907 5906 5906 5905 5904 5903 5902 5900 5900 5898 5897 5897 5896 5895 5894 5893 5893 5892 5892 5891 5891 5891 5891 5890 5890 5890 5889 5889 5888 5888 5888 5887 5887 5887 5887 5887 5887 5887 5887 5887 5887 5887 5889 5889 5890
5907 5906 5910 5910 5910 5909 5908 5907 5906 5905 5904 5903 5901 5900 5900 5899 5897 5896 5896 5895 5894 5894 5893 5893 5892 5892 5892 5892 5892 5891 5891 5890 5890 5889 5889 5888 5888 5888 5888 5888 5888 5887 5887 5887 5887 5888 5888 5889 5889
5911 5910 5912 5912 5912 5911 5910 5909 5908 5907 5906 5905 5903 5902 5901 5900 5899 5897 5897 5896 5896 5895 5895 5894 5894 5893 5893 5893 5893 5892 5892 5891 5891 5890 5889 5889 5889 5889 5888 5888 5888 5888 5888 5887 5887 5888 5888 5888 5889
5911 5914 5915 5915 5914 5913 5912 5911 5910 5909 5907 5907 5906 5904 5903 5902 5901 5900 5899 5898 5897 5896 5896 5895 5895 5895 5894 5894 5894 5893 5892 5892 5891 5891 5890 5890 5889 5889 5888 5888 5888 5888 5888 5887 5887 5888 5888 5888 5888
5915 5918 5917 5917 5916 5915 5914 5913 5912 5911 5909 5908 5907 5906 5905 5904 5903 5901 5900 5900 5898 5898 5897 5897 5896 5896 5896 5895 5894 5894 5893 5892 5892 5891 5891 5890 5889 5889 5888 5888 5888 5888 5888 5887 5887 5887 5887 5888 5888
5919 5920 5920 5919 5918 5916 5915 5914 5914 5912 5911 5910 5909 5908 5907 5906 5905 5903 5902 5901 5900 5899 5899 5898 5898 5897 5897 5896 5895 5895 5894 5893 5892 5892 5891 5891 5890 5889 5889 5888 5888 5887 5887 5887 5887 5887 5887 5887 5887
5921 5921 5921 5921 5919 5918 5916 5915 5915 5914 5913 5912 5910 5909 5908 5907 5906 5905 5903 5903 5901 5901 5901 5900 5899 5899 5898 5897 5896 5896 5895 5894 5893 5892 5892 5891 5890 5889 5889 5888 5887 5887 5887 5886 5886 5886 5886 5886 5886
5922 5922 5922 5922 5920 5919 5918 5917 5917 5915 5914 5913 5911 5910 5910 5909 5908 5907 5905 5905 5903 5903 5902 5901 5901 5900 5899 5898 5897 5896 5895 5894 5893 5892 5890 5889 5890 5889 5888 5888 5887 5887 5886 5886 5886 5885 5885 5885 5885
5923 5923 5923 5923 5922 5921 5920 5919 5918 5917 5915 5914 5913 5912 5911 5910 5909 5908 5907 5906 5905 5904 5903 5903 5902 5901 5900 5899 5898 5896 5896 5895 5894 5892 5890 5889 5888 5888 5887 5887 5886 5885 5885 5885 5884 5884 5884 5884 5884
5923 5923 5923 5924 5923 5922 5921 5920 5918 5917 5915 5915 5915 5913 5912 5911 5910 5909 5908 5907 5907 5906 5905 5904 5903 5902 5901 5900 5899 5897 5896 5895 5894 5892 5891 5890 5888 5888 5887 5885 5885 5884 5884 5884 5884 5883 5883 5882 5882
5923 5923 5924 5924 5924 5923 5922 5920 5919 5918 5918 5917 5916 5915 5913 5912 5911 5910 5909 5909 5908 5907 5906 5905 5904 5903 5902 5901 5900 5898 5897 5895 5894 5893 5891 5890 5889 5888 5887 5886 5885 5884 5883 5883 5882 5883 5881 5881 5881
5923 5923 5924 5925 5924 5923 5923 5921 5920 5920 5919 5918 5917 5915 5914 5913 5912 5911 5910 5909 5909 5908 5907 5906 5905 5904 5902 5901 5900 5899 5897 5896 5894 5893 5892 5890 5889 5888 5887 5886 5885 5883 5882 5882 5882 5881 5881 5880 5879
5923 5924 5924 5925 5924 5924 5924 5922 5921 5920 5919 5919 5917 5915 5914 5913 5913 5912 5911 5910 5909 5908 5907 5906 5905 5904 5903 5902 5900 5899 5898 5896 5894 5893 5892 5890 5889 5887 5886 5885 5884 5883 5882 5882 5881 5880 5880 5879 5878
5924 5925 5925 5925 5925 5924 5924 5922 5920 5920 5920 5919 5918 5915 5914 5914 5913 5912 5911 5911 5910 5909 5908 5907 5905 5904 5903 5902 5900 5899 5897 5896 5894 5893 5891 5890 5889 5887 5886 5885 5884 5883 5882 5881 5880 5879 5879 5878 5877
5923 5924 5925 5925 5924 5924 5923 5923 5921 5920 5919 5919 5917 5915 5914 5914 5914 5912 5912 5911 5910 5909 5908 5906 5905 5904 5903 5901 5900 5898 5897 5895 5894 5892 5891 5890 5889 5887 5886 5885 5884 5883 5882 5881 5879 5878 5877 5877 5875
5922 5922 5923 5924 5923 5923 5922 5922 5920 5918 5918 5917 5917 5916 5914 5914 5913 5912 5911 5910 5909 5908 5907 5906 5904 5903 5902 5901 5899 5898 5896 5894 5893 5892 5890 5889 5888 5887 5886 5885 5884 5882 5881 5880 5878 5877 5876 5875 5874
5920 5921 5921 5920 5921 5922 5921 5920 5917 5916 5916 5916 5915 5914 5913 5912 5910 5911 5910 5909 5908 5907 5906 5905 5904 5902 5901 5900 5898 5897 5895 5894 5892 5891 5889 5888 5887 5886 5885 5884 5883 5881 5880 5879 5877 5876 5875 5874 5873
5917 5918 5918 5919 5919 5919 5920 5919 5917 5915 5915 5915 5914 5913 5912 5911 5910 5909 5908 5908 5907 5906 5905 5904 5903 5902 5900 5899 5897 5896 5895 5893 5891 5890 5888 5887 5886 5884 5883 5882 5881 5880 5878 5877 5876 5874 5873 5872 5871
5914 5915 5916 5916 5916 5917 5916 5916 5915 5913 5913 5912 5911 5911 5911 5909 5908 5907 5907 5906 5906 5905 5904 5903 5902 5900 5899 5898 5896 5895 5893 5892 5890 5888 5887 5885 5884 5883 5881 5880 5879 5877 5876 5875 5873 5871 5870 5869 5868
5912 5912 5912 5913 5913 5913 5913 5913 5912 5911 5911 5910 5909 5909 5908 5907 5906 5906 5905 5904 5903 5903 5902 5901 5900 5899 5897 5896 5895 5893 5892 5890 5888 5887 5885 5884 5882 5880 5879 5878 5876 5875 5873 5872 5870 5869 5868 5866 5865
5908 5909 5910 5910 5909 5910 5911 5910 5910 5909 5909 5907 5907 5906 5905 5905 5904 5904 5903 5902 5901 5900 5900 5899 5898 5897 5895 5894 5893 5891 5889 5888 5886 5884 5883 5881 5880 5878 5876 5874 5873 5871 5870 5868 5867 5866 5864 5863 5862
5904 5906 5908 5908 5908 5907 5907 5905 5905 5905 5905 5905 5904 5903 5902 5902 5901 5901 5901 5900 5899 5898 5897 5896 5895 5894 5893 5892 5890 5888 5887 5885 5883 5881 5880 5878 5876 5874 5873 5871 5869 5867 5866 5864 5863 5862 5860 5859 5858
5900 5902 5904 5905 5905 5904 5903 5902 5902 5900 5901 5901 5901 5900 5899 5898 5898 5898 5898 5897 5896 5894 5894 5893 5892 5891 5890 5889 5887 5886 5884 5882 5880 5878 5876 5874 5872 5871 5869 5867 5865 5864 5862 5860 5859 5857 5856 5855 5854
5897 5899 5901 5901 5900 5900 5900 5899 5898 5898 5897 5897 5897 5897 5896 5896 5895 5895 5894 5893 5892 5890 5889 5890 5889 5888 5887 5885 5884 5882 5880 5878 5876 5874 5872 5870 5868 5866 5865 5863 5861 5859 5857 5856 5854 5853 5851 5850 5848
5892 5895 5896 5897 5898 5898 5897 5898 5896 5895 5893 5893 5892 5892 5893 5893 5892 5892 5891 5890 5889 5887 5887 5886 5885 5884 5883 5881 5880 5878 5876 5874 5872 5870 5868 5865 5864 5861 5860 5858 5856 5854 5853 5851 5849 5847 5846 5844 5843
5888 5890 5892 5894 5893 5894 5894 5895 5892 5890 5888 5888 5888 5887 5888 5888 5888 5888 5887 5886 5885 5884 5882 5881 5880 5879 5878 5877 5875 5873 5871 5869 5867 5865 5863 5860 5858 5856 5855 5853 5850 5849 5847 5845 5843 5841 5840 5838 5836
Wind_Speed
14 14 14 15 15 13 11 10 8 8 8 8 7 7 7 7 6 6 6 6 5 5 6 6 6 6 6 6 6 6 5 5 4 4 3 3 3 3 3 3 3 3 3 3 4 4 5 5 5
13 12 13 14 14 11 10 10 9 9 9 8 7 7 8 8 8 7 6 6 6 6 6 6 6 6 6 6 6 6 5 5 4 4 3 3 3 3 3 3 2 3 2 3 4 4 4 5 5
12 12 14 14 11 11 9 9 9 8 8 7 7 7 8 8 8 7 7 7 7 7 6 6 7 6 6 6 6 6 6 6 5 4 3 2 2 2 2 2 2 2 3 3 3 4 4 5 5
11 13 15 13 9 10 9 9 8 8 7 7 7 7 8 8 8 8 8 7 7 7 7 6 7 6 6 5 5 5 6 6 5 4 3 2 1 1 1 1 1 1 1 1 2 3 4 5 4
12 14 14 11 9 9 10 8 7 7 7 7 7 7 8 8 8 8 8 8 7 6 6 6 6 6 5 5 5 5 5 5 5 4 4 3 2 2 1 1 1 1 1 1 2 3 4 4 5
11 14 11 10 8 9 9 8 7 7 8 8 8 8 8 8 8 8 9 9 7 7 6 6 6 6 5 5 5 5 5 5 4 4 4 2 2 2 2 1 2 1 0 2 2 3 3 3 4
11 12 11 9 8 8 8 7 7 7 7 8 9 9 8 8 8 8 8 8 8 8 7 6 5 5 5 5 5 5 4 4 4 4 4 3 3 3 2 2 2 2 1 0 1 2 3 3 4
10 11 10 7 6 7 6 7 7 7 7 7 8 8 8 8 9 8 8 8 8 8 7 6 6 5 5 5 5 5 5 5 4 4 4 4 3 3 3 3 3 2 2 1 1 2 3 3 3
9 9 9 6 6 6 5 7 7 7 8 8 8 8 8 9 9 9 8 8 9 8 7 6 7 7 6 6 5 5 5 5 5 5 5 5 4 4 4 4 3 3 3 3 3 2 2 3 3
8 8 7 5 5 5 5 6 7 6 7 8 8 8 7 8 8 9 8 8 8 8 8 7 7 7 7 7 6 6 6 5 5 5 5 5 5 5 5 4 4 3 3 3 4 3 3 4 5
5 5 5 5 4 5 6 6 5 6 7 8 9 8 7 8 8 8 9 9 9 8 8 7 7 7 8 7 7 6 6 6 6 6 5 5 5 5 5 5 5 4 4 4 4 4 5 5 5
5 4 5 5 5 5 6 6 5 5 6 7 8 8 7 8 8 9 9 9 9 8 8 8 8 8 7 7 7 7 6 7 7 7 6 6 6 6 6 6 5 5 5 5 5 5 6 6 6
3 2 3 4 5 5 5 6 5 5 7 6 7 7 7 8 8 8 9 9 9 9 8 8 9 9 8 8 8 8 7 7 6 7 7 8 7 8 8 5 5 5 5 5 5 6 6 7 6
2 2 2 3 4 4 4 5 6 6 7 7 8 8 8 8 7 7 8 8 9 9 9 9 9 9 9 9 9 9 8 8 8 8 8 9 9 9 8 7 6 6 6 6 6 7 7 7 7
1 1 2 2 4 6 5 6 6 7 7 8 8 8 8 8 8 8 8 8 8 9 9 9 9 9 9 9 9 8 8 8 8 9 10 10 10 10 9 8 7 6 6 6 6 7 6 7 7
2 3 2 2 4 5 5 7 6 7 8 7 7 7 8 7 8 8 8 8 8 9 9 9 10 10 10 10 9 9 9 9 10 10 10 11 11 10 9 8 8 7 7 6 6 6 6 7 7
4 4 5 5 5 4 6 8 8 8 8 8 8 7 7 7 8 8 8 8 8 9 9 9 10 11 10 10 10 10 10 10 10 11 11 11 12 11 11 9 9 8 8 7 7 7 8 8 8
5 5 6 6 7 6 6 9 9 8 9 9 9 8 6 7 8 8 8 9 9 9 10 10 10 11 12 11 11 12 12 11 11 11 11 11 12 12 12 10 10 10 9 9 9 8 9 9 8
8 7 7 8 8 7 8 10 11 11 11 10 10 9 8 8 8 9 9 9 10 10 10 11 11 11 12 12 13 13 13 12 12 12 12 12 12 11 11 11 10 10 10 10 10 9 9 9 9
9 10 10 9 8 8 10 11 11 12 12 11 11 10 9 9 9 10 10 10 11 11 11 12 12 12 12 13 13 13 13 13 13 13 13 13 12 12 12 11 11 12 12 12 12 11 10 9 9
10 12 11 9 9 9 11 13 12 11 12 13 12 11 11 10 9 11 11 11 11 11 11 12 13 13 13 13 14 13 13 14 14 13 14 14 13 13 13 12 13 13 13 13 13 13 12 12 12
12 13 13 11 11 11 11 13 14 11 12 13 14 13 14 13 11 10 12 11 12 12 11 12 13 13 13 14 14 14 14 15 15 15 14 14 15 15 14 14 14 14 14 14 14 14 14 13 13
14 13 13 12 13 14 14 14 14 13 13 15 15 15 15 14 12 11 12 13 12 12 12 12 13 14 14 14 15 15 15 16 16 16 15 15 16 16 16 15 15 15 15 15 15 15 15 14 14
15 14 13 14 15 18 15 16 17 15 15 17 15 15 15 14 13 13 13 14 14 13 13 13 14 14 14 15 15 15 16 17 17 16 16 17 17 18 18 17 17 16 16 17 17 17 16 15 15
15 14 14 15 16 17 13 15 16 15 14 16 17 17 16 15 15 15 14 14 15 15 14 15 15 15 15 15 16 17 17 17 18 18 18 18 18 19 18 18 17 18 19 19 19 18 17 17 17
17 15 16 17 17 18 17 17 15 15 17 17 17 18 17 14 15 15 16 15 16 16 16 16 16 16 16 17 18 18 18 19 20 20 20 20 20 20 20 19 19 19 20 20 20 19 19 18 19
17 17 17 18 18 19 19 18 17 15 17 18 18 19 18 15 16 17 17 17 17 18 18 17 17 18 18 19 19 20 20 20 21 21 22 22 22 22 21 21 20 21 21 21 20 20 20 20 20
18 16 17 17 17 18 18 17 16 17 18 19 19 19 18 17 17 18 18 18 19 18 19 19 18 19 20 20 21 22 22 22 23 23 24 24 24 24 24 23 22 22 23 22 22 22 23 22 22
18 18 18 17 17 17 16 17 19 21 19 19 19 19 18 18 20 19 18 19 19 20 21 21 21 21 22 22 23 24 24 24 24 24 25 25 25 26 26 25 24 24 25 25 25 24 24 24 24
18 19 17 18 19 17 17 20 21 22 19 20 20 19 20 21 21 19 19 20 20 21 23 23 24 23 24 24 25 26 26 25 26 26 26 26 26 27 27 26 26 26 26 27 27 26 26 26 25
Wind_Direction
78 80 76 74 70 66 66 64 60 59 59 55 55 50 50 51 47 49 54 57 67 70 69 68 71 69 71 70 75 83 89 83 88 112 139 151 147 163 162 154 158 148 154 170 179 187 197 195 187
77 78 76 76 73 62 60 63 61 55 53 50 52 51 49 50 52 53 54 60 70 66 67 69 69 69 71 69 67 70 77 79 78 91 109 128 131 117 125 126 136 139 140 158 168 181 190 186 181
77 74 73 73 74 67 56 49 47 55 48 42 43 46 47 52 56 57 59 63 67 65 66 69 66 67 70 67 64 59 60 67 74 73 80 95 112 110 110 119 117 128 136 152 166 179 182 177 175
77 72 66 65 63 61 50 46 43 48 48 45 38 41 48 53 55 54 54 61 64 65 67 68 63 60 60 62 61 56 54 55 64 67 73 80 86 79 106 119 123 152 150 147 174 182 189 186 188
79 74 68 57 47 50 41 41 43 39 37 42 37 41 50 51 53 53 51 53 60 63 63 65 60 54 53 54 54 51 49 45 47 53 61 67 52 47 31 10 69 122 203 209 186 176 187 191 194
74 70 68 59 38 41 40 40 42 38 36 35 34 41 47 48 50 51 49 46 49 59 57 60 58 54 57 57 51 46 45 45 40 33 34 36 19 21 26 14 14 11 136 174 178 186 188 209 215
72 75 70 58 40 30 37 43 40 37 43 45 37 36 44 47 44 43 43 41 41 43 46 49 53 51 49 47 42 38 37 34 33 29 21 11 0 357 353 347 354 352 332 197 209 212 208 214 224
62 68 60 44 39 27 26 38 42 40 41 49 49 41 42 41 41 41 40 40 42 41 43 45 45 48 46 42 36 32 25 21 21 21 17 8 3 356 342 337 339 343 328 324 264 250 237 242 233
66 61 54 35 29 29 30 32 40 43 41 41 43 39 38 41 40 40 38 36 38 38 42 49 42 37 36 32 29 27 18 12 13 11 12 10 2 350 342 340 335 331 330 326 320 299 260 256 251
70 59 48 34 33 34 38 42 32 33 38 35 35 33 34 36 38 36 36 35 40 41 42 42 40 35 34 30 27 22 13 7 3 3 8 10 2 352 345 336 332 329 330 325 325 318 294 263 259
74 64 52 32 35 33 34 41 36 21 26 28 28 25 28 32 33 30 33 33 38 40 37 35 29 27 29 29 26 20 12 8 360 354 356 356 353 350 343 333 329 322 323 320 316 310 299 278 265
79 55 49 36 37 38 36 32 31 18 27 29 19 17 24 30 31 31 26 25 27 31 30 29 25 22 19 20 22 19 12 8 4 354 346 345 340 343 334 323 318 313 311 316 310 303 299 287 275
90 59 59 38 30 26 29 27 23 23 33 28 14 15 20 25 29 27 25 23 22 21 23 21 16 16 16 16 16 17 10 4 360 352 352 345 336 336 325 311 315 311 303 304 306 308 302 288 277
119 68 49 23 1 2 1 5 8 13 30 26 18 14 15 12 15 12 13 22 21 20 20 15 9 8 10 10 11 11 3 358 353 349 345 342 337 333 331 330 321 319 312 308 306 307 304 290 288
205 303 2 0 330 341 346 354 9 15 10 13 11 5 4 6 9 10 15 18 14 13 11 8 3 359 0 3 4 3 358 351 348 344 346 342 338 336 329 329 327 323 316 309 309 303 303 306 302
247 277 309 320 321 322 331 330 352 0 359 356 360 3 358 0 6 9 12 11 9 6 6 3 0 357 354 356 357 355 351 348 345 341 342 342 336 331 330 327 327 326 323 317 308 304 311 310 304
256 267 280 281 294 304 311 319 330 340 340 339 342 352 356 355 359 1 1 0 359 357 356 355 354 352 350 351 353 349 343 340 338 338 338 337 337 337 334 330 328 331 328 322 315 313 312 307 301
248 277 289 276 286 288 288 304 312 323 322 325 325 330 349 345 346 349 352 351 349 350 348 345 345 344 345 343 343 342 342 340 338 338 336 336 338 339 337 331 324 324 326 326 322 315 314 308 301
242 255 272 274 276 279 286 299 302 311 309 310 314 318 327 328 330 333 337 337 340 340 340 341 340 337 335 336 337 338 338 337 335 334 335 333 333 336 334 336 333 330 327 326 326 322 319 314 310
244 247 248 258 269 269 278 289 290 300 305 305 302 305 306 309 320 323 326 328 333 333 331 333 336 334 332 331 331 332 333 333 330 328 331 331 327 330 331 332 332 328 326 329 326 327 324 320 313
241 253 252 251 257 268 272 282 283 289 302 303 300 296 303 304 309 316 319 324 326 329 326 327 329 330 329 330 328 329 331 330 328 327 323 325 326 325 323 321 323 323 325 325 325 326 324 319 316
246 253 258 258 253 261 261 272 278 284 294 299 297 295 297 298 297 303 309 317 320 322 323 324 326 326 327 327 327 329 330 329 324 324 319 320 322 322 322 319 320 319 318 318 319 320 321 319 317
248 250 253 253 254 257 252 261 270 281 287 288 291 293 297 297 293 296 302 309 313 316 317 318 320 320 321 322 322 323 325 326 324 324 323 322 319 318 318 318 318 316 315 315 317 315 315 316 314
246 249 251 256 258 261 262 262 270 277 283 286 290 292 296 295 292 297 299 300 304 310 311 312 316 317 317 318 318 319 320 323 323 321 319 319 318 316 316 315 313 313 312 311 311 312 312 311 310
242 247 257 261 266 267 267 262 268 273 275 278 285 289 293 292 292 295 296 295 298 299 302 309 311 315 316 315 314 314 316 318 321 320 317 316 316 316 313 312 311 309 308 308 308 308 306 305 305
240 242 258 265 270 273 268 260 262 267 271 273 283 287 286 289 289 292 294 293 293 294 297 302 307 310 311 313 313 313 314 315 317 318 316 314 313 313 311 310 309 307 307 306 304 304 303 302 302
242 240 250 262 265 268 268 266 267 271 271 272 278 281 285 290 290 291 291 290 290 290 295 301 306 307 308 310 311 311 312 312 313 314 314 313 312 311 309 307 306 306 306 303 301 301 301 300 300
243 246 247 252 262 268 275 274 277 275 273 274 277 278 284 290 290 291 289 288 288 287 292 298 302 304 306 307 308 309 308 308 309 308 309 310 309 308 308 305 305 304 303 302 300 300 299 299 298
244 243 241 247 253 262 269 273 275 275 277 281 280 281 281 286 290 289 287 287 288 290 293 296 298 300 301 302 304 305 305 305 306 307 308 307 306 306 306 305 303 304 302 300 298 297 297 297 297
247 246 241 247 255 259 265 270 271 270 272 275 278 278 278 281 285 285 285 286 288 290 292 293 295 297 298 299 301 301 301 302 304 306 307 306 305 304 304 304 302 301 300 299 296 295 294 294 295